Nan, Thailand

7:57 PM +07 on November 21, 2017 (GMT +0700)
Nan

Weather History for VTCN - December, 2013

Change the Weather History Date:

Sunday, December 29, 2013

  Actual Average Record
Temperature  
Mean Temperature 64 °F -  
Max Temperature 78 °F 86 °F - ()
Min Temperature 50 °F 56 °F - ()
Degree Days  
Heating Degree Days 1    
Growing Degree Days 14 (Base 50)    
Moisture  
Dew Point 54 °F    
Average Humidity 71    
Maximum Humidity 100    
Minimum Humidity 36    
Precipitation  
Precipitation 0.00 in 0.01 in - ()
Sea Level Pressure  
Sea Level Pressure 30.02 in    
Wind  
Wind Speed 1 mph ()    
Max Wind Speed 4 mph    
Max Gust Speed -    
Visibility 3.8 miles    
Events Fog    
T = Trace of Precipitation, MM = Missing Value Source: Averaged Metar Reports

Daily Weather History Graph

Daily Weather History Graph

Search for Another Location

Airport or City:

Trip Planner

Search our weather history database for the weather conditions in past years. The results will help you decide how hot, cold, wet, or windy it might be!

Date:

Astronomy

Dec. 29, 2013 Rise Set
Actual Time 6:48 AM +07 5:49 PM +07
Civil Twilight 6:24 AM +07 6:13 PM +07
Nautical Twilight 5:57 AM +07 6:40 PM +07
Astronomical Twilight 5:30 AM +07 7:07 PM +07
Moon 3:11 AM +07 (12/29) 2:49 PM +07 (12/29)
Length of Visible Light 11h 48m
Length of Day
11h 00m
Waning Crescent, 15% of the Moon is Illuminated
Dec 29
Waning Crescent
Jan 1
New
Jan 8
First Quarter
Jan 16
Full
Jan 24
Last Quarter

Hourly Weather History & Observations

Time (+07) Temp. Dew Point Humidity Pressure Visibility Wind Dir Wind Speed Gust Speed Precip Events Conditions
1:00 AM 57 °F 55 °F 91% 30.07 in 4 mi Calm Calm - -   Mist
4:00 AM 54 °F 53 °F 95% 30.05 in 2 mi Calm Calm - -   Mist
7:00 AM 52 °F 52 °F 100% 30.08 in 0 mi Calm Calm - - Fog Heavy Fog
7:00 AM 50.0 °F 50.0 °F 100% 30.06 in 0.1 mi Variable 2.3 mph - N/A   Unknown
8:00 AM 51.8 °F 51.8 °F 100% 30.09 in 0.1 mi NNW 1.2 mph - N/A   Unknown
10:00 AM 59 °F 56 °F 85% 30.12 in 4 mi Calm Calm - -   Mist
10:00 AM 59.0 °F 59.0 °F 100% 30.09 in 1.2 mi SSW 1.2 mph - N/A   Mostly Cloudy
11:00 AM 68.0 °F 51.8 °F 56% 30.06 in 2.5 mi West 1.2 mph - N/A   Mist
12:00 PM 71.6 °F 48.2 °F 43% 30.04 in 3.7 mi SSW 3.5 mph - N/A   Unknown
1:00 PM 73 °F 56 °F 44% 30.00 in 6 mi Calm Calm - -   Partly Cloudy
1:00 PM 75.2 °F 48.2 °F 38% 30.01 in 5.0 mi West 2.3 mph - N/A   Unknown
2:00 PM 77.0 °F 48.2 °F 36% 29.95 in 5.0 mi NNW 3.5 mph - N/A   Partly Cloudy
3:00 PM 77.0 °F 48.2 °F 36% 29.92 in 6.2 mi NNE 3.5 mph - N/A   Partly Cloudy
4:00 PM 78 °F 57 °F 38% 29.92 in 6 mi Calm Calm - -  
5:00 PM 73.4 °F 48.2 °F 41% 29.92 in - SW 2.3 mph - N/A   Clear
6:00 PM 66.2 °F 55.4 °F 68% 29.95 in 5.6 mi North 2.3 mph - N/A   Unknown
7:00 PM 67 °F 59 °F 68% 29.99 in 6 mi Calm Calm - -  
7:00 PM 60.8 °F 60.8 °F 100% 29.98 in 5.0 mi North 3.5 mph - N/A   Unknown
8:00 PM 62.6 °F 60.8 °F 94% 30.01 in 4.3 mi South 3.5 mph - N/A   Unknown
10:00 PM 61 °F 57 °F 84% 30.07 in 6 mi Calm Calm - -